THOR ABLESTAR DEB, 3125

Orbit data source: Space-Track

THOR ABLESTAR DEB, 3125 is space debris in LEO originally from a launch on Thu, 29 Jun 1961 UTC launched from the Air Force Eastern Test Range (AFETR). Debris objects in space refer to the collection of defunct objects orbiting the Earth. Examples of debris include non-operational satellites, rocket bodies, and fragments generated from explosions, collisions, or faulty payload assembly.

Loading next visibility...
Identifier
3125, 1961-015HY
Orbit
LEO
Country
Flag of USUS
Related business
Manufacturer
Unknown
Mission
Spacecraft
Bus & Motor
Unknown
Mass
Unknown
Launch date (UTC)
1961-06-29 (65 years ago)
Launch vehicle
Unknown
Launch site
Air Force Eastern Test Range (AFETR)
Object type
Payload
Rocket body
Debris
Shape & HBR
Unknown shape, 0.1 m
Radar Cross Section
Small (<0.1 m²)

Expand to show TLE details & history
Last TLE update: 7 hours ago

TLE from 7 hours ago
0 THOR ABLESTAR DEB
1  3125U 61015HY  26036.38669076  .00000709  00000-0  13318-2 0  9990
2  3125  67.5568 173.8408 0301987 147.6309 247.1927 13.27500788130039
Epoch: 2026-02-05T09:16Z
TLE epoch observation values (Epoch: 2026-02-05T09:16:50.081Z)
Latitude
29.09666°
Longitude
-87.68595°
Altitude
1,252.943 km
Speed
7.186 km/s
True Right ascension
12h 28m 14s
True Declination
28° 57' 37"
Sunlit
Object was in full shadow at epoch
Visualization orbit readout
Latitude
Unknown
Longitude
Unknown
Altitude
Unknown
Speed
Unknown
Apparent Right ascension
Unknown
Apparent Declination
Unknown
Sunlit
N/A
Visualization observer readout
Local Sidereal Time
18:29:34
Azimuth
Unknown
Elevation
Unknown
Doppler factor
Unknown
Orbital elements
Apogee altitude
1,382.04 km
Perigee altitude
927.085 km
Semi-major axis
7,532.7 km
Eccentricity
0.0302
Inclination
67.5568°
RAAN
173.8408°
Arg. of periapsis
147.6309°
True anomaly
244.05035°
Mean anomaly
247.1927°
Eccentric anomaly
245.61677°
Mean motion
3.31984 °/min
Orbital period
108.44 mins
BSTAR
0.0013318
Loading maneuver chart data...
Computing Atmospheric mass density...

Documentation

Showing up to 5 results
|